www.pogodaiklimat.ru
ПОГОДА в Ла-Эсперансе

Архив погоды в Ла-Эсперансе (Гондурас)

Время
(UTC), дата
18 5.07
21 5.07
00 6.07
12 6.07
15 6.07
18 6.07
21 6.07
00 7.07
12 7.07
15 7.07
18 7.07
21 7.07
00 8.07
12 8.07
15 8.07
18 8.07
21 8.07
00 9.07
12 9.07
15 9.07
18 9.07
21 9.07
00 10.07
12 10.07
15 10.07
18 10.07
21 10.07
00 11.07
12 11.07
15 11.07
18 11.07
21 11.07
00 12.07
12 12.07
15 12.07
Ветер
(напр.,м/с)
Видим. Явления Облачность Т
(С)
Тd
(С)
f
(%)
Тe
(С)
Тes
(С)
Комфортность P
(гПа)
Po
(гПа)
Тmin
(С)
Tmax
(С)
R
(мм)
R24
(мм)
S
(см)
штиль 0 10 км осадки на расстоянии 9/8 600 м
[Cb cap Ac cuf Ci ing]
+20.4 +18.3 88 +23 +29 комфорт 1010.1 834.3 +15.4 +22.6
штиль 0 10 км осадки на расстоянии {дождь} 9/8 300 м
[Cb cap Ac cuf Ci ing]
+20.6 +19.6 94 +26 +30 душно 1009.0 833.5
штиль 0 10 км гроза без осадков {дождь} 9/8 300 м
[Cb cap Ac cuf Ci ing]
+17.2 +16.9 98 +17 +17 1010.0 833.8 34
СВ 2 8000 м дымка 3/1 600 м
[Sc diur, vesp Ac trans Ci fib]
+15.8 +15.5 100 +16 +16 1011.6 835.5 +15.3 +23.2 6 41.4
СВ 2 20 км {туман} 9/9 600 м
[Cu med, cong Ci fib]
+20.0 +17.1 83 +23 +30 комфорт 1011.5 836.3
СВ 2 20 км {туман} 9/9 600 м
[Cb cap Ci fib]
+22.8 +17.4 69 +28 +32 душно 1010.8 836.4 +15.3 +22.8
СВ 2 20 км 8/8 600 м
[Cb cap Ci fib]
+23.6 +17.1 67 +27 +30 жарко 1008.4 834.9
СВ 2 20 км гроза без осадков 9/6 600 м
[Cb cap Cs]
+20.2 +17.9 87 +24 +24 комфорт 1010.9 835.6 +15.3 +24.0
штиль 0 8000 м дымка 5/1 600 м
[Sc diur, vesp Ac trans Ci fib]
+14.2 +13.9 100 +13 +14 1011.6 835.7 +13.6 +24.0 21 20.6
С 2 20 км {туман} 9/1 660 м
[Cu hum Ac trans Ci fib]
+19.4 +16.8 88 +21 +26 комфорт 1010.3 835.4
С 2 20 км {туман} 6/5 720 м
[Cu med, cong Ac trans Cs]
+22.0 +16.2 69 +26 +37 душно 1011.5 836.1 +13.6 +22.0
СВ 2 20 км 6/6 720 м
[Cb cap Ac trans Ci fib]
+23.4 +17.1 69 +28 +34 душно 1007.8 833.9
С 2 20 км 9/6 660 м
[Cb cap Cs]
+20.0 +17.1 83 +23 +23 комфорт 1009.1 833.6 +13.6 +23.5
штиль 0 8000 м дымка 8/1 600 м
[Sc diur, vesp Ac trans Ci fib]
+16.6 +16.3 94 +17 +17 1010.9 835.4 +16.0 +23.5 25 24.5
В 2 20 км {туман} 9/1 600 м
[Cu hum Ac trans Cs]
+20.8 +16.5 76 +25 +31 комфорт 1010.3 835.3
СВ 2 20 км {туман} 8/8 600 м
[Cu med, cong Ci fib]
+22.8 +17.1 69 +28 +32 душно 1009.6 835.0 +16.0 +23.2
В 2 20 км 8/8 600 м
[Cb cap Ci fib]
+22.4 +17.9 76 +27 +30 душно 1009.1 834.4
штиль 0 20 км в посл. час гроза 8/3 600 м
[Cu med, cong As op Ci fib]
+18.6 +17.2 88 +20 +20 1010.9 835.3 +16.0 +24.5
штиль 0 20 км 1/1 660 м
[Sc diur, vesp Ac lent Ci fib]
+16.2 +15.9 100 +16 +16 1011.6 835.0 +15.5 +24.5
штиль 0 20 км 4/3 660 м
[Cu hum Ac trans Ci fib]
+22.0 +16.2 69 +26 +39 душно 1010.9 836.0
штиль 0 10 км гроза без осадков 5/5 660 м
[Cb]
+23.0 +17.0 69 +28 +43 душно 1011.0 835.9
штиль 0 10 км гроза, ливневой дождь 9/8 540 м
[Cb cap Ac cuf Ci ing]
+18.4 +18.1 100 +18 +22 1011.2 835.2
штиль 0 20 км {гроза, дождь} 9/1 660 м
[Cu hum Ac As Ci ing]
+18.0 +16.0 88 +18 +18 1011.0 834.6 +15.5 +26.0
штиль 0 10 км {гроза} 5/1 300 м
[Sc diur, vesp Ci fib]
+12.8 +12.5 100 +12 +13 1013.2 835.3 +12.0 +26.0 2.9
СВ 3 20 км 8/1 600 м
[Cu hum Cs]
+20.4 +15.6 78 +23 +31 комфорт 1010.9 835.6
СВ 3 20 км 6/3 600 м
[Cu hum Ci fib]
+23.2 +14.5 61 +27 +41 душно 1010.7 835.4 +12.0 +23.2
СВ 2 20 км 5/4 600 м
[Cb cap Ac cuf Ci ing]
+23.4 +15.2 61 +27 +33 душно 1009.5 834.4
СВ 2 10 км гроза без осадков 9/8 600 м
[Cb cap Ac cuf Ci ing]
+17.8 +16.2 88 +19 +19 1012.9 835.0 +12.0 +24.4
СВ 2 8000 м 9/8 480 м
[Sc diur, vesp Ac trans Ci fib]
+16.8 +16.2 94 +17 +17 1012.8 836.0 +15.0 +24.4 2 2.2
СВ 3 20 км 8/1 600 м
[Cu hum Ac trans Ci fib]
+20.8 +15.0 69 +25 +28 комфорт 1011.9 836.4
В 2 20 км 9/6 600 м
[Cu med, cong Ac trans Ci fib]
+22.0 +13.8 60 +25 +30 комфорт 1011.8 836.8 +15.0 +22.6
СВ 3 10 км позёмок {дождь} 8/2 720 м
[Cb calv Ac trans Cs]
+22.0 +14.0 60 +25 +29 комфорт
штиль 0 20 км 6/1 600 м
[Cu hum Ac trans Ci fib]
+19.4 +15.4 78 +20 +20 1011.8 835.8 +15.0 +23.0
штиль 0 8000 м 6/6 600 м
[Sc diur, vesp Ac trans Ci fib]
+15.6 +15.0 94 +16 +16 1013.3 837.5 +14.5 +23.0 0.5
С 2 20 км 8/1 660 м
[Cu hum Ac trans Ci fib]
+18.4 +15.1 83 +19 +23 1013.3 837.5
Местоположение метеостанции Ла-Эсперанса (Гондурас): широта 14.32 долгота -88.16 высота над уровнем моря 1674 м.
В архиве по умолчанию представлена погода в Ла-Эсперансе за последнюю неделю. Архивные данные за месяц целиком и за предыдущие месяцы, начиная с января 2011 года, Вы можете получить, выбрав интересующий диапазон дат из раскрывающегося списка и нажав кнопку "Найти!".
*Определитесь, кто Вы:
Внимание! Время в таблицах - всемирное. Для получения местного времени необходимо прибавить поправку, которая равна -6 ч.
Некоторые строки с данными для отдельных станций могут быть выделены курсивом. Это означает, что фактические данные отсутствуют по различным причинам, а приведенные значения являются расчетными модельными данными для данного пункта наблюдений.
Смотрите также архив погоды в соседних городах и на ближайших метеорологических станциях:
Партнеры нашего сайта:      
Пояснения к столбцам:
  • Ветер - указаны скорость ветра в м/с - средняя за 10 мин, порывы в срок и между сроками (в фигурных скобках) и направление, откуда дует ветер: С - северный,
  • СВ - северо-восточный, В - восточный, ЮВ - юго-восточный, Ю - южный, ЮЗ - юго-западный, З - западный, СЗ - северо-западный.
  • Видимость - горизонтальная дальность видимости в метрах или километрах. При видимости от 1 до 10 км при отсутствии осадков обычно наблюдается дымка, при ухудшении видимости до 1 км и менее - туман. В сухую погоду видимость может ухудшаться дымом, пылью или мглою.
  • Явления - указаны атмосферные явления, наблюдавшиеся в срок или в последний час перед сроком; фигурными скобками обозначены явления, наблюдавшиеся между сроками (за 1-3 часа до срока); квадратными скобками обозначены град или гололедные отложения с указанием их диаметра в мм.
  • Облачность - указаны через наклонную черту общая и нижняя облачность в баллах и высота нижней границы облаков в метрах; квадратными скобками обозначены формы облаков: Ci - перистые, Cs - перисто-слоистые, Cc - перисто-кучевые, Ac - высококучевые, As - высокослоистые, Sc - слоисто-кучевые, Ns - слоисто-дождевые, Cu - кучевые, Cb - кучево-дождевые. Подробнее классификацию облаков см. в Атласе облаков (PDF).
  • T - Температура воздуха - температура, измеренная на высоте 2 м над землей.
  • Td - Температура точки росы - температура, при понижении до которой содержащийся в воздухе водяной пар достигнет насыщения.
  • f - Относительная влажность воздуха - влажноcть воздуха, измеренная на высоте 2 м над землей.
  • Te - Эффективная температура - температура, которую ощущает одетый по сезону человек в тени. Характеристика душности погоды. При расчете учитывается влияние влажности воздуха и скорости ветра на теплоощущения человека.
  • Tes - Эффективная температура на солнце - температура, которую ощущает человек, с поправкой на солнечный нагрев. Характеристика знойности погоды. Зависит от высоты солнца над горизонтом, облачности и скорости ветра. Ночью, в пасмурную погоду, а также при ветре 12 м/с и более поправка равна нулю.
  • P - Атмосферное давление - приведенное к уровню моря атмосферное давление.
  • Po - Атмосферное давление - измеренное на уровне метеостанции атмосферное давление.
  • Tmin - Минимальная температура - минимум температуры воздуха на высоте 2 м над землей.
  • Tmax - Максимальная температура - максимум температуры воздуха на высоте 2 м над землей.
  • R - Количество осадков - Количество выпавших осадков за период времени, мм. При наведении курсора мыши на число - период времени, за который выпало указанное количество осадков.
  • R24 - Количество осадков - Количество выпавших осадков за 24 часа, мм.
  • S - Снежный покров - Высота снежного покрова, см. При наведении курсора мыши на число - состояние снежного покрова и степень покрытия местности в баллах.